Вернуться в каталог

SL-8 DEB

АктивенPO
NORAD 29290·DEBRIS·🇷🇺 Russia

Запущен Dec 17, 1981 с Plesetsk Cosmodrome

Loading…

Ближайшие Пролёты (ближайшие 24 часа)

TLE

УстаревающийSource: Space-Track

Эпоха: Sep 7, 2026, 12:13 UTC

1 29290U 81120U   26250.50948128  .00000043  00000-0  36235-3 0  9995
2 29290  82.9640 317.5582 0028183  87.0773 337.3742 12.10497535574190

Отслеживайте SL-8 DEB в реальном времени с AllMySat

Download on the App Store